User: anonymous   Login
Location: Plymouth
(43.7570°N, 71.6890°W)
Time: 07:21:07
(UTC-05:00)
Language:

COSMOS 2406 - Orbit

View from above orbital plane
View from above orbital plane
View from above satellite
View from above satellite

Ground track
Ground track

The orbit data is extracted from the following two-line orbital elements,

1 28352U 04021A   17056.35948841  .00000173  00000-0  12107-3 0  9993
2 28352  71.0036 358.1922 0016676 274.5316  85.3900 14.11608016655068
Epoch (UTC): 25 February 2017 08:37:39
Eccentricity: 0.0016676
inclination: 71.0036°
perigee height: 842 km
apogee height: 866 km
right ascension of ascending node: 358.1922°
argument of perigee: 274.5316°
revolutions per day: 14.11608016
mean anomaly at epoch: 85.3900°
orbit number at epoch: 65506

The dashed part of the orbit path shows where the satellite is in the earth's shadow,  

DLR